• In Norway
  • List of Countries
  • For 7 days
  • Water Temperature
  • Satellite Maps
  • Weather Map
  • Weather Widgets
  • user-avatar
    Login

    Hourly Weather Kobrovcy

    Today, 22 October, Monday

    Time Temperature Precipitation Wind Pressure Humidity
    00:00 +9°C° 0 mm 1 mps 757 mmHg 72%
    01:00 +8°C° 0 mm 1 mps 757 mmHg 73%
    02:00 +6°C° 0 mm 2 mps 756 mmHg 77%
    03:00 +6°C° 0 mm 2 mps 756 mmHg 80%
    04:00 +5°C° 0 mm 2 mps 756 mmHg 82%
    05:00 +5°C° 0 mm 2 mps 756 mmHg 84%
    06:00 +5°C° 0 mm 2 mps 755 mmHg 85%
    07:00 +4°C° 0 mm 3 mps 755 mmHg 86%
    08:00 +4°C° 0 mm 3 mps 755 mmHg 84%
    09:00 +5°C° 0 mm 3 mps 755 mmHg 78%
    10:00 +7°C° 0 mm 4 mps 754 mmHg 73%
    11:00 +8°C° 0 mm 4 mps 754 mmHg 67%
    12:00 +10°C° 0 mm 4 mps 753 mmHg 64%
    13:00 +10°C° 0 mm 4 mps 753 mmHg 61%
    14:00 +9°C° 0 mm 5 mps 752 mmHg 59%
    15:00 +10°C° 0 mm 4 mps 752 mmHg 62%
    16:00 +8°C° 0 mm 4 mps 751 mmHg 65%
    17:00 +7°C° 0 mm 4 mps 751 mmHg 68%
    18:00 +7°C° 0.2 mm 4 mps 751 mmHg 71%
    19:00 +7°C° 0.2 mm 4 mps 750 mmHg 75%
    20:00 +7°C° 0.2 mm 5 mps 750 mmHg 79%
    21:00 +7°C° 0.2 mm 4 mps 750 mmHg 81%
    22:00 +7°C° 0.2 mm 4 mps 750 mmHg 84%
    23:00 +6°C° 0.2 mm 4 mps 750 mmHg 87%

    Tomorrow, 23 October, Tuesday

    Time Temperature Precipitation Wind Pressure Humidity
    00:00 +7°C° 0 mm 3 mps 750 mmHg 89%
    01:00 +5°C° 0 mm 3 mps 749 mmHg 90%
    02:00 +4°C° 0 mm 3 mps 749 mmHg 92%
    03:00 +4°C° 0 mm 3 mps 749 mmHg 92%
    04:00 +3°C° 0 mm 3 mps 748 mmHg 93%
    05:00 +3°C° 0 mm 3 mps 748 mmHg 93%
    06:00 +3°C° 0 mm 3 mps 747 mmHg 92%
    07:00 +3°C° 0 mm 4 mps 746 mmHg 90%
    08:00 +4°C° 0 mm 4 mps 746 mmHg 89%
    09:00 +3°C° 0.1 mm 5 mps 745 mmHg 86%
    10:00 +4°C° 0.1 mm 6 mps 743 mmHg 82%
    11:00 +4°C° 0.1 mm 7 mps 742 mmHg 79%
    12:00 +4°C° 0.7 mm 7 mps 741 mmHg 78%
    13:00 +4°C° 0.7 mm 8 mps 739 mmHg 78%
    14:00 +4°C° 0.7 mm 8 mps 738 mmHg 78%
    15:00 +4°C° 1.3 mm 8 mps 736 mmHg 79%
    16:00 +4°C° 1.3 mm 8 mps 735 mmHg 81%
    17:00 +3°C° 1.3 mm 9 mps 733 mmHg 82%
    18:00 +5°C° 0.4 mm 8 mps 732 mmHg 83%
    19:00 +5°C° 0.4 mm 7 mps 731 mmHg 84%
    20:00 +6°C° 0.4 mm 7 mps 730 mmHg 85%
    21:00 +5°C° 0.2 mm 6 mps 730 mmHg 85%
    22:00 +5°C° 0.2 mm 6 mps 729 mmHg 84%
    23:00 +5°C° 0.2 mm 6 mps 728 mmHg 84%

    Day after tomorrow, 24 October, Wednesday

    Time Temperature Precipitation Wind Pressure Humidity
    00:00 +5°C° 0.3 mm 6 mps 728 mmHg 84%
    01:00 +4°C° 0.3 mm 6 mps 727 mmHg 84%
    02:00 +5°C° 0.3 mm 5 mps 727 mmHg 84%
    03:00 +5°C° 0.4 mm 5 mps 726 mmHg 85%
    04:00 +5°C° 0.4 mm 5 mps 726 mmHg 85%
    05:00 +4°C° 0.4 mm 4 mps 725 mmHg 86%
    06:00 +3°C° 0.3 mm 5 mps 725 mmHg 84%
    07:00 +3°C° 0.3 mm 6 mps 726 mmHg 83%
    08:00 +3°C° 0.3 mm 6 mps 726 mmHg 81%
    09:00 +3°C° 0 mm 7 mps 726 mmHg 77%
    10:00 +4°C° 0 mm 7 mps 726 mmHg 72%
    11:00 +4°C° 0 mm 7 mps 727 mmHg 68%
    12:00 +4°C° 1.4 mm 7 mps 726 mmHg 72%
    13:00 +4°C° 1.4 mm 8 mps 726 mmHg 76%
    14:00 +4°C° 1.4 mm 8 mps 726 mmHg 81%
    15:00 +4°C° 0.7 mm 8 mps 726 mmHg 81%
    16:00 +4°C° 0.7 mm 8 mps 727 mmHg 81%
    17:00 +5°C° 0.7 mm 8 mps 728 mmHg 81%
    18:00 +4°C° 0.2 mm 8 mps 729 mmHg 82%
    19:00 +4°C° 0.2 mm 7 mps 730 mmHg 83%
    20:00 +4°C° 0.2 mm 6 mps 731 mmHg 84%
    21:00 +4°C° 0.3 mm 6 mps 732 mmHg 83%
    22:00 +4°C° 0.3 mm 7 mps 733 mmHg 81%
    23:00 +4°C° 0.3 mm 8 mps 734 mmHg 80%

    25 October, Thursday

    Time Temperature Precipitation Wind Pressure Humidity
    00:00 +4°C° 0 mm 8 mps 735 mmHg 80%
    01:00 +3°C° 0 mm 7 mps 736 mmHg 80%
    02:00 +3°C° 0 mm 7 mps 736 mmHg 80%
    03:00 +3°C° 0 mm 7 mps 737 mmHg 81%
    04:00 +2°C° 0 mm 6 mps 737 mmHg 82%
    05:00 +2°C° 0 mm 6 mps 737 mmHg 83%
    06:00 +2°C° 0 mm 5 mps 737 mmHg 84%
    07:00 +1°C° 0 mm 5 mps 737 mmHg 85%
    08:00 +1°C° 0 mm 4 mps 737 mmHg 86%
    09:00 +3°C° 0 mm 4 mps 737 mmHg 82%
    10:00 +4°C° 0 mm 4 mps 736 mmHg 77%
    11:00 +5°C° 0 mm 4 mps 736 mmHg 73%
    12:00 +5°C° 0.3 mm 4 mps 735 mmHg 73%
    13:00 +5°C° 0.3 mm 4 mps 734 mmHg 74%
    14:00 +4°C° 0.3 mm 4 mps 734 mmHg 74%
    15:00 +4°C° 0.4 mm 3 mps 734 mmHg 77%
    16:00 +4°C° 0.4 mm 2 mps 733 mmHg 80%
    17:00 +5°C° 0.4 mm 1 mps 733 mmHg 84%
    18:00 +5°C° 0.1 mm 1 mps 734 mmHg 85%
    19:00 +4°C° 0.1 mm 1 mps 735 mmHg 87%
    20:00 +3°C° 0.1 mm 2 mps 735 mmHg 89%
    21:00 +2°C° 0 mm 2 mps 736 mmHg 90%
    22:00 +2°C° 0 mm 2 mps 737 mmHg 91%
    23:00 +2°C° 0 mm 2 mps 737 mmHg 93%

    26 October, Friday

    Time Temperature Precipitation Wind Pressure Humidity
    00:00 +1°C° 0 mm 2 mps 738 mmHg 94%
    01:00 +1°C° 0 mm 2 mps 738 mmHg 94%
    02:00 +1°C° 0 mm 2 mps 738 mmHg 95%
    03:00 +1°C° 0 mm 2 mps 738 mmHg 95%
    04:00 +2°C° 0 mm 2 mps 739 mmHg 95%
    05:00 +1°C° 0 mm 3 mps 739 mmHg 96%
    06:00 +1°C° 0.1 mm 3 mps 739 mmHg 95%
    07:00 +2°C° 0.1 mm 3 mps 739 mmHg 94%
    08:00 +2°C° 0.1 mm 3 mps 740 mmHg 94%
    09:00 +4°C° 0 mm 4 mps 740 mmHg 87%
    10:00 +5°C° 0 mm 4 mps 740 mmHg 81%
    11:00 +6°C° 0 mm 5 mps 741 mmHg 74%
    12:00 +7°C° 0 mm 5 mps 741 mmHg 72%
    13:00 +7°C° 0 mm 4 mps 741 mmHg 69%
    14:00 +8°C° 0 mm 4 mps 741 mmHg 66%
    15:00 +7°C° 0 mm 4 mps 741 mmHg 72%
    16:00 +7°C° 0 mm 3 mps 741 mmHg 77%
    17:00 +6°C° 0 mm 2 mps 741 mmHg 83%
    18:00 +6°C° 0 mm 2 mps 741 mmHg 85%
    19:00 +5°C° 0 mm 3 mps 742 mmHg 87%
    20:00 +5°C° 0 mm 3 mps 742 mmHg 89%
    21:00 +4°C° 0 mm 3 mps 742 mmHg 89%
    22:00 +4°C° 0 mm 3 mps 742 mmHg 90%
    23:00 +4°C° 0 mm 3 mps 741 mmHg 90%

    27 October, Saturday

    Time Temperature Precipitation Wind Pressure Humidity
    00:00 +4°C° 0 mm 3 mps 741 mmHg 89%
    01:00 +4°C° 0 mm 4 mps 741 mmHg 89%
    02:00 +4°C° 0 mm 4 mps 740 mmHg 88%
    03:00 +3°C° 0 mm 5 mps 740 mmHg 88%
    04:00 +5°C° 0 mm 5 mps 739 mmHg 88%
    05:00 +5°C° 0 mm 5 mps 739 mmHg 88%
    06:00 +5°C° 0.1 mm 5 mps 738 mmHg 88%
    07:00 +5°C° 0.1 mm 6 mps 738 mmHg 88%
    08:00 +5°C° 0.1 mm 6 mps 738 mmHg 88%
    09:00 +7°C° 0.1 mm 6 mps 738 mmHg 86%
    10:00 +8°C° 0.1 mm 6 mps 738 mmHg 84%
    11:00 +9°C° 0.1 mm 6 mps 737 mmHg 82%
    12:00 +9°C° 0 mm 5 mps 737 mmHg 81%
    13:00 +9°C° 0 mm 5 mps 737 mmHg 79%
    14:00 +11°C° 0 mm 4 mps 737 mmHg 77%
    15:00 +10°C° 0 mm 4 mps 737 mmHg 79%
    16:00 +9°C° 0 mm 3 mps 738 mmHg 80%
    17:00 +9°C° 0 mm 3 mps 738 mmHg 82%
    18:00 +8°C° 0.1 mm 3 mps 738 mmHg 83%
    19:00 +8°C° 0.1 mm 3 mps 738 mmHg 83%
    20:00 +8°C° 0.1 mm 2 mps 738 mmHg 84%
    21:00 +7°C° 0 mm 2 mps 738 mmHg 83%
    22:00 +7°C° 0 mm 2 mps 738 mmHg 83%
    23:00 +6°C° 0 mm 2 mps 739 mmHg 83%

    28 October, Sunday

    Time Temperature Precipitation Wind Pressure Humidity
    00:00 +6°C° 0 mm 2 mps 739 mmHg 82%
    01:00 +7°C° 0 mm 1 mps 739 mmHg 81%
    02:00 +7°C° 0 mm 1 mps 739 mmHg 80%
    03:00 +7°C° 0.1 mm 1 mps 739 mmHg 80%
    04:00 +6°C° 0.1 mm 1 mps 738 mmHg 80%
    05:00 +6°C° 0.1 mm 1 mps 738 mmHg 81%
    06:00 +6°C° 0.3 mm 1 mps 738 mmHg 81%
    07:00 +6°C° 0.3 mm 1 mps 738 mmHg 82%
    08:00 +6°C° 0.3 mm 1 mps 738 mmHg 82%
    09:00 +6°C° 0.8 mm 1 mps 737 mmHg 83%
    10:00 +6°C° 0.8 mm 1 mps 737 mmHg 83%
    11:00 +6°C° 0.8 mm 1 mps 737 mmHg 83%
    12:00 +6°C° 0.3 mm 1 mps 737 mmHg 83%
    13:00 +5°C° 0.3 mm 2 mps 737 mmHg 83%
    14:00 +5°C° 0.3 mm 2 mps 737 mmHg 83%
    15:00 +5°C° 0.2 mm 2 mps 738 mmHg 84%
    16:00 +4°C° 0.2 mm 3 mps 738 mmHg 84%
    17:00 +4°C° 0.2 mm 3 mps 739 mmHg 85%
    18:00 +4°C° 0 mm 3 mps 739 mmHg 84%
    19:00 +4°C° 0 mm 4 mps 740 mmHg 83%
    20:00 +3°C° 0 mm 5 mps 741 mmHg 82%
    21:00 +2°C° 0 mm 5 mps 742 mmHg 82%
    22:00 +2°C° 0 mm 5 mps 742 mmHg 82%
    23:00 +2°C° 0 mm 5 mps 743 mmHg 83%
    Show more